| time (UTC) | temp F | wind direction | speed MPH | gust MPH | rain 1hr in | rain 24hr in | rain mn in | humidity % | barometer mb |
| 20260905131551 | 49 | 225 | 8.0 | 11.0 | 0.00 | 0.00 | 0.00 | 91 | 1020.6 |
| 20260905130050 | 49 | 227 | 3.0 | 6.0 | 0.00 | 0.00 | 0.00 | 91 | 1020.0 |
| 20260905124547 | 49 | 241 | 3.0 | 7.0 | 0.00 | 0.00 | 0.00 | 89 | 1019.6 |
| 20260905123050 | 48 | 227 | 6.0 | 10.0 | 0.00 | 0.00 | 0.00 | 88 | 1019.8 |
| 20260905121545 | 48 | 241 | 6.0 | 11.0 | 0.00 | 0.00 | 0.00 | 86 | 1019.8 |
| 20260905120047 | 47 | 227 | 7.0 | 10.0 | 0.00 | 0.00 | 0.00 | 87 | 1019.8 |
| 20260905114542 | 48 | 217 | 7.0 | 14.0 | 0.00 | 0.00 | 0.00 | 87 | 1019.6 |
| 20260905113049 | 45 | 215 | 5.0 | 8.0 | 0.00 | 0.00 | 0.00 | 86 | 1019.6 |
| 20260905111603 | 46 | 215 | 4.0 | 9.0 | 0.00 | 0.00 | 0.00 | 82 | 1019.5 |
| 20260905110041 | 49 | 213 | 5.0 | 12.0 | 0.00 | 0.00 | 0.00 | 79 | 1019.7 |
| 20260905104536 | 47 | 238 | 4.0 | 7.0 | 0.00 | 0.00 | 0.00 | 82 | 1019.5 |
| 20260905103037 | 47 | 239 | 5.0 | 7.0 | 0.00 | 0.00 | 0.00 | 82 | 1019.4 |
| 20260905101545 | 48 | 219 | 5.0 | 9.0 | 0.00 | 0.00 | 0.00 | 78 | 1019.2 |
| 20260905100029 | 50 | 180 | 4.0 | 8.0 | 0.00 | 0.00 | 0.00 | 76 | 1019.0 |
| 20260905094528 | 50 | 234 | 6.0 | 9.0 | 0.00 | 0.00 | 0.00 | 75 | 1019.1 |
| 20260905093028 | 49 | 228 | 4.0 | 6.0 | 0.00 | 0.00 | 0.00 | 76 | 1019.1 |
| 20260905091527 | 50 | 233 | 3.0 | 5.0 | 0.00 | 0.00 | 0.00 | 74 | 1018.6 |
| 20260905090023 | 52 | 192 | 3.0 | 5.0 | 0.00 | 0.00 | 0.00 | 72 | 1018.7 |
| 20260905084523 | 54 | 279 | 4.0 | 5.0 | 0.00 | 0.00 | 0.00 | 70 | 1018.1 |
| 20260905083022 | 52 | 279 | 3.0 | 7.0 | 0.00 | 0.00 | 0.00 | 70 | 1018.3 |
| 20260905081522 | 50 | 240 | 1.0 | 4.0 | 0.00 | 0.00 | 0.00 | 74 | 1018.9 |
| 20260905080132 | 52 | 240 | 4.0 | 8.0 | 0.00 | 0.00 | 0.00 | 70 | 1018.6 |
| 20260905074520 | 50 | 254 | 4.0 | 7.0 | 0.00 | 0.00 | 0.00 | 74 | 1018.7 |
| 20260905073017 | 53 | 211 | 4.0 | 8.0 | 0.00 | 0.00 | 0.00 | 67 | 1018.7 |
| 20260905071520 | 54 | 264 | 6.0 | 14.0 | 0.00 | 0.00 | 0.00 | 66 | 1018.4 |
| 20260905070018 | 54 | 255 | 8.0 | 14.0 | 0.00 | 0.00 | 0.00 | 67 | 1018.7 |
| 20260905064516 | 53 | 240 | 7.0 | 11.0 | 0.00 | 0.00 | 0.00 | 72 | 1018.8 |
| 20260905063013 | 52 | 225 | 6.0 | 9.0 | 0.00 | 0.00 | 0.00 | 74 | 1018.9 |
| 20260905061514 | 52 | 250 | 5.0 | 7.0 | 0.00 | 0.00 | 0.00 | 74 | 1018.6 |
| 20260905060006 | 55 | 238 | 8.0 | 11.0 | 0.00 | 0.00 | 0.00 | 67 | 1018.3 |
| 20260905054509 | 54 | 265 | 10.0 | 13.0 | 0.00 | 0.00 | 0.00 | 69 | 1018.3 |
| 20260905053008 | 54 | 250 | 6.0 | 9.0 | 0.00 | 0.00 | 0.00 | 70 | 1018.4 |
| 20260905051504 | 54 | 253 | 6.0 | 11.0 | 0.00 | 0.00 | 0.00 | 69 | 1018.6 |
| 20260905050008 | 55 | 247 | 5.0 | 8.0 | 0.00 | 0.00 | 0.00 | 66 | 1018.2 |
| 20260905044502 | 55 | 230 | 4.0 | 7.0 | 0.00 | 0.00 | 0.00 | 66 | 1018.5 |
| 20260905043101 | 56 | 225 | 7.0 | 10.0 | 0.00 | 0.00 | 0.00 | 63 | 1018.3 |
| 20260905041604 | 56 | 217 | 4.0 | 11.0 | 0.00 | 0.00 | 0.00 | 63 | 1017.9 |
| 20260905040105 | 57 | 284 | 8.0 | 13.0 | 0.00 | 0.00 | 0.00 | 61 | 1017.2 |
| 20260905034611 | 58 | 224 | 5.0 | 11.0 | 0.00 | 0.00 | 0.00 | 56 | 1017.9 |
| 20260905033115 | 58 | 275 | 8.0 | 11.0 | 0.00 | 0.00 | 0.00 | 56 | 1017.4 |
| 20260905031611 | 59 | 283 | 8.0 | 10.0 | 0.00 | 0.00 | 0.00 | 55 | 1017.6 |
| 20260905030059 | 58 | 286 | 7.0 | 12.0 | 0.00 | 0.00 | 0.00 | 56 | 1017.2 |
| 20260905024551 | 59 | 291 | 9.0 | 13.0 | 0.00 | 0.00 | 0.00 | 54 | 1016.8 |
| 20260905023100 | 60 | 278 | 7.0 | 12.0 | 0.00 | 0.00 | 0.00 | 53 | 1017.0 |
| 20260905021548 | 59 | 298 | 9.0 | 14.0 | 0.00 | 0.00 | 0.00 | 53 | 1016.2 |
| 20260905020047 | 59 | 297 | 5.0 | 11.0 | 0.00 | 0.00 | 0.00 | 52 | 1016.3 |
| 20260905014545 | 60 | 308 | 9.0 | 13.0 | 0.00 | 0.00 | 0.00 | 51 | 1016.1 |
| 20260905013045 | 62 | 339 | 9.0 | 13.0 | 0.00 | 0.00 | 0.00 | 49 | 1016.0 |
| 20260905011547 | 63 | 306 | 11.0 | 17.0 | 0.00 | 0.00 | 0.00 | 46 | 1015.7 |
| 20260905010049 | 64 | 291 | 11.0 | 18.0 | 0.00 | 0.00 | 0.00 | 44 | 1015.8 |
| 20260905004542 | 64 | 292 | 13.0 | 18.0 | 0.00 | 0.00 | 0.00 | 43 | 1015.8 |
| 20260905003042 | 66 | 311 | 10.0 | 16.0 | 0.00 | 0.00 | 0.00 | 42 | 1016.0 |
| 20260905001548 | 66 | 295 | 10.0 | 14.0 | 0.00 | 0.00 | 0.00 | 42 | 1016.0 |
| 20260905000041 | 66 | 304 | 9.0 | 17.0 | 0.00 | 0.00 | 0.00 | 42 | 1015.9 |
| 20260904234538 | 66 | 281 | 13.0 | 19.0 | 0.00 | 0.00 | 0.00 | 40 | 1015.7 |
| 20260904233046 | 66 | 284 | 12.0 | 21.0 | 0.00 | 0.00 | 0.00 | 41 | 1015.7 |
| 20260904231540 | 66 | 315 | 13.0 | 20.0 | 0.00 | 0.00 | 0.00 | 39 | 1015.6 |
| 20260904230100 | 66 | 279 | 16.0 | 21.0 | 0.00 | 0.00 | 0.00 | 40 | 1015.3 |
| 20260904224535 | 67 | 294 | 15.0 | 25.0 | 0.00 | 0.00 | 0.00 | 39 | 1015.3 |
| 20260904223033 | 67 | 265 | 12.0 | 22.0 | 0.00 | 0.00 | 0.00 | 40 | 1015.1 |
| 20260904221530 | 64 | 285 | 17.0 | 23.0 | 0.00 | 0.00 | 0.00 | 41 | 1014.9 |
| 20260904220030 | 66 | 290 | 14.0 | 23.0 | 0.00 | 0.00 | 0.00 | 40 | 1014.7 |
| 20260904214527 | 66 | 296 | 15.0 | 23.0 | 0.00 | 0.00 | 0.00 | 39 | 1014.6 |
| 20260904213030 | 66 | 271 | 15.0 | 23.0 | 0.00 | 0.00 | 0.00 | 39 | 1014.5 |
| 20260904211525 | 65 | 308 | 17.0 | 25.0 | 0.00 | 0.00 | 0.00 | 40 | 1014.4 |
| 20260904210023 | 66 | 281 | 15.0 | 24.0 | 0.00 | 0.00 | 0.00 | 42 | 1014.2 |
| 20260904204529 | 63 | 319 | 12.0 | 20.0 | 0.00 | 0.00 | 0.00 | 45 | 1014.0 |
| 20260904203020 | 63 | 275 | 14.0 | 20.0 | 0.00 | 0.00 | 0.00 | 45 | 1013.9 |
| 20260904201514 | 61 | 254 | 15.0 | 20.0 | 0.00 | 0.00 | 0.00 | 48 | 1014.0 |
| 20260904200013 | 60 | 277 | 14.0 | 20.0 | 0.00 | 0.00 | 0.00 | 50 | 1013.7 |
| 20260904194510 | 60 | 267 | 14.0 | 19.0 | 0.00 | 0.00 | 0.00 | 50 | 1013.4 |
| 20260904193109 | 60 | 259 | 13.0 | 20.0 | 0.00 | 0.00 | 0.00 | 51 | 1013.3 |
| 20260904191507 | 59 | 269 | 14.0 | 19.0 | 0.00 | 0.00 | 0.00 | 52 | 1013.2 |
| 20260904190006 | 59 | 264 | 14.0 | 19.0 | 0.00 | 0.00 | 0.00 | 53 | 1013.1 |
| 20260904184503 | 59 | 261 | 10.0 | 17.0 | 0.00 | 0.00 | 0.00 | 55 | 1012.8 |
| 20260904183002 | 58 | 264 | 9.0 | 15.0 | 0.00 | 0.00 | 0.00 | 57 | 1012.7 |
| 20260904181501 | 57 | 268 | 9.0 | 15.0 | 0.00 | 0.00 | 0.00 | 57 | 1012.7 |
| 20260904180002 | 56 | 250 | 10.0 | 14.0 | 0.00 | 0.00 | 0.00 | 59 | 1012.6 |
| 20260904174559 | 56 | 291 | 10.0 | 15.0 | 0.00 | 0.00 | 0.00 | 58 | 1012.2 |
| 20260904173102 | 55 | 279 | 12.0 | 15.0 | 0.00 | 0.00 | 0.00 | 60 | 1012.3 |
| 20260904171613 | 55 | 246 | 10.0 | 15.0 | 0.00 | 0.00 | 0.00 | 61 | 1012.2 |
| 20260904170054 | 54 | 250 | 13.0 | 19.0 | 0.00 | 0.00 | 0.00 | 62 | 1012.0 |
| 20260904164600 | 54 | 269 | 8.0 | 14.0 | 0.00 | 0.00 | 0.00 | 63 | 1011.8 |
| 20260904163050 | 55 | 265 | 10.0 | 13.0 | 0.00 | 0.00 | 0.00 | 60 | 1011.8 |
| 20260904161550 | 54 | 229 | 9.0 | 16.0 | 0.00 | 0.00 | 0.00 | 63 | 1011.5 |
| 20260904160046 | 55 | 246 | 9.0 | 15.0 | 0.00 | 0.00 | 0.00 | 62 | 1011.7 |
| 20260904154544 | 54 | 269 | 6.0 | 21.0 | 0.00 | 0.00 | 0.00 | 66 | 1011.1 |
| 20260904153103 | 54 | 284 | 6.0 | 15.0 | 0.00 | 0.00 | 0.00 | 65 | 1010.7 |
| 20260904151546 | 55 | 21 | 8.0 | 11.0 | 0.00 | 0.00 | 0.00 | 62 | 1010.3 |
| 20260904150054 | 57 | 55 | 5.0 | 7.0 | 0.00 | 0.00 | 0.00 | 58 | 1010.3 |
| 20260904144542 | 57 | 74 | 4.0 | 8.0 | 0.00 | 0.00 | 0.00 | 54 | 1010.5 |
| 20260904143042 | 54 | 257 | 1.0 | 7.0 | 0.00 | 0.00 | 0.00 | 60 | 1010.4 |
| 20260904141540 | 54 | 67 | 4.0 | 6.0 | 0.00 | 0.00 | 0.00 | 62 | 1010.3 |
| 20260904140042 | 54 | 67 | 3.0 | 6.0 | 0.00 | 0.00 | 0.00 | 62 | 1010.4 |
| 20260904134539 | 53 | 85 | 5.0 | 11.0 | 0.00 | 0.00 | 0.00 | 62 | 1010.3 |
| 20260904133045 | 53 | 57 | 5.0 | 7.0 | 0.00 | 0.00 | 0.00 | 61 | 1010.4 |